Weather History for Casper, WY

Change the Weather History Date:

Tuesday, January 8, 2013

  Actual Average Record
Temperature  
Mean Temperature 36 °F 25 °F  
Max Temperature 43 °F 35 °F 54 °F (2002)
Min Temperature 28 °F 14 °F -27 °F (1962)
Degree Days  
Heating Degree Days 29 40  
Month to date heating degree days 343 325  
Since 1 July heating degree days 3066 3454  
Cooling Degree Days 0 0  
Month to date cooling degree days 0 0  
Year to date cooling degree days 0 0  
Moisture  
Dew Point 17 °F    
Average Humidity 53    
Maximum Humidity 69    
Minimum Humidity 36    
Precipitation  
Precipitation 0.00 in 0.01 in 0.33 in (1985)
Month to date precipitation T 0.13  
Year to date precipitation T 0.13  
Snow  
Snow 0.00 in 0.30 in - ()
Month to date snowfall 0.1 2.6  
Since 1 July snowfall 18.8 33.1  
Snow Depth 0.00 in    
Sea Level Pressure  
Sea Level Pressure 29.99 in    
Wind  
Wind Speed 20 mph (SW)    
Max Wind Speed 32 mph    
Max Gust Speed 41 mph    
Visibility 10 miles    
Events      
T = Trace of Precipitation, MM = Missing Value Source: NWS Daily Summary

Daily Weather History Graph

Daily Weather History Graph

Search for Another Location

Airport:

Trip Planner

Search our weather history database for the weather conditions in past years. The results will help you decide how hot, cold, wet, or windy it might be!

Date:

Astronomy

Jan. 08, 2013 Rise Set
Actual Time 7:36 AM MST 4:49 PM MST
Civil Twilight 7:04 AM MST 5:21 PM MST
Nautical Twilight 6:29 AM MST 5:56 PM MST
Astronomical Twilight 5:55 AM MST 6:30 PM MST
Moon 4:12 AM MST (1/8) 1:54 PM MST (1/8)
Length of Visible Light 10h 16m
Length of Day
9h 13m
Waning Crescent, 13% of the Moon is Illuminated
Jan 8
Waning Crescent
Jan 11
New
Jan 18
First Quarter
Jan 26
Full
Feb 3
Last Quarter

Hourly Weather History & Observations

Time (MST) Temp. Windchill Dew Point Humidity Pressure Visibility Wind Dir Wind Speed Gust Speed Precip Events Conditions
12:53 AM 28.9 °F 14.3 °F 14.0 °F 54% 29.79 in 10.0 mi SW 26.5 mph 35.7 mph N/A   Clear
1:53 AM 30.0 °F 17.5 °F 15.1 °F 54% 29.81 in 10.0 mi SW 19.6 mph - N/A   Clear
2:53 AM 28.9 °F 14.5 °F 15.1 °F 56% 29.82 in 10.0 mi SW 25.3 mph 32.2 mph N/A   Clear
3:53 AM 30.0 °F 16.0 °F 16.0 °F 56% 29.82 in 10.0 mi SSW 25.3 mph 31.1 mph N/A   Clear
4:53 AM 30.9 °F 17.8 °F 16.0 °F 54% 29.85 in 10.0 mi SW 23.0 mph 32.2 mph N/A   Clear
5:53 AM 32.0 °F 19.2 °F 17.1 °F 54% 29.88 in 10.0 mi SW 23.0 mph 31.1 mph N/A   Overcast
6:53 AM 28.9 °F 15.4 °F 17.1 °F 61% 29.88 in 10.0 mi SW 21.9 mph 32.2 mph N/A   Clear
7:53 AM 28.9 °F 18.6 °F 17.1 °F 61% 29.92 in 10.0 mi SSW 12.7 mph - N/A   Clear
8:53 AM 32.0 °F 23.6 °F 17.1 °F 54% 29.94 in 10.0 mi SSW 10.4 mph - N/A   Clear
9:53 AM 35.1 °F 23.8 °F 18.0 °F 50% 29.97 in 10.0 mi South 20.7 mph 24.2 mph N/A   Clear
10:53 AM 39.9 °F 32.1 °F 17.1 °F 40% 29.96 in 10.0 mi WSW 13.8 mph 26.5 mph N/A   Clear
11:53 AM 39.2 °F 29.0 °F 15.8 °F 39% 29.92 in 10.0 mi West 21.9 mph 34.5 mph N/A   Clear
12:53 PM 42.1 °F 32.8 °F 17.1 °F 37% 29.95 in 10.0 mi West 21.9 mph 28.8 mph N/A   Clear
1:53 PM 42.1 °F 31.7 °F 17.1 °F 37% 29.97 in 10.0 mi West 27.6 mph 38.0 mph N/A   Clear
2:53 PM 41.0 °F 31.6 °F 17.1 °F 38% 30.01 in 10.0 mi West 20.7 mph 31.1 mph N/A   Clear
3:53 PM 39.9 °F 31.1 °F 16.0 °F 38% 30.04 in 10.0 mi West 17.3 mph - N/A   Clear
4:53 PM 34.0 °F 25.5 °F 19.0 °F 54% 30.08 in 10.0 mi WSW 11.5 mph - N/A   Clear
5:53 PM 32.0 °F 21.2 °F 19.0 °F 59% 30.10 in 10.0 mi SW 16.1 mph - N/A   Clear
6:53 PM 28.9 °F 18.2 °F 17.1 °F 61% 30.15 in 10.0 mi WSW 13.8 mph - N/A   Clear
7:53 PM 28.0 °F 17.0 °F 19.0 °F 69% 30.17 in 10.0 mi SW 13.8 mph - N/A   Clear
8:53 PM 28.9 °F 16.1 °F 19.0 °F 67% 30.15 in 10.0 mi SW 19.6 mph - N/A   Clear
9:53 PM 30.9 °F 17.5 °F 18.0 °F 59% 30.16 in 10.0 mi SW 24.2 mph 31.1 mph N/A   Clear
10:53 PM 30.9 °F 18.4 °F 18.0 °F 59% 30.17 in 10.0 mi WSW 20.7 mph 28.8 mph N/A   Clear
11:53 PM 30.9 °F 18.7 °F 18.0 °F 59% 30.20 in 10.0 mi SW 19.6 mph 26.5 mph N/A   Clear